Location: Aufkirchen
(47.9603°N, 11.3653°E)
Time: 23:12:32
(UTC+02:00)

Altair - Pass Details

Date: 30 July 2021
Orbit: 1501 x 1682 km, 47.2° (Epoch: 22 September)

Event Time Altitude Azimuth Distance (km) Brightness Sun altitude
Exits shadow 00:52:40 10° 117° (ESE) 3,674 9.2 -23.2°
Drops below altitude 10° 00:53:33 10° 112° (ESE) 3,706 9.2 -23.2°
Sets 01:00:16 0° 78° (ENE) 4,659 10.1 -23.4°
